カタログに戻る

SDA_1682

運用中科学PO
NORAD 65992·PAYLOAD·🇺🇸 United States

打ち上げ Oct 15, 2025 から Vandenberg Space Force Base

Loading…

次のパス (今後24時間)

TLE

最新Source: Space-Track

元期: Sep 14, 2026, 15:36 UTC

1 65992U 25230U   26257.65030737  .00000143  00000-0  13076-3 0  9994
2 65992  81.3020 130.5621 0001213  54.5903 305.5363 13.78099607 46081

AllMySatでSDA_1682をリアルタイム追跡

Download on the App Store